Location: Home
(42.5358°N, 72.7383°W)
Time: 09:31:04
(UTC-05:00)

Vanguard 2 - Pass Details

Date: 02 December 2021
Orbit: 553 x 2936 km, 32.9° (Epoch: 21 January)

Event Time Altitude Azimuth Distance (km) Brightness Sun altitude
Rises 14:32:06 0° 243° (WSW) 3,110 12.0 14.3°
Reaches altitude 10° 14:34:17 10° 234° (SW) 2,371 12.1 14.0°
Maximum altitude 14:39:22 37° 168° (SSE) 1,584 9.8 13.4°
Drops below altitude 10° 14:47:14 10° 106° (ESE) 3,685 10.8 12.4°
Sets 14:51:28 0° 99° (E) 5,100 11.4 11.8°
